Temperature
20 20 19 19 19 19 21 22 23 23 23 23 23 23 22 21 21 21 21 21 21 20 20 20 19 19 19 19 19 19 19 19 19 19 19 19 19 19 19 19 19 19 19 18 18 18 18 18 18
20 20 19 19 19 20 22 23 23 23 23 23 23 22 21 21 21 21 21 21 21 20 20 20 20 20 20 19 19 19 19 19 19 19 19 19 19 19 19 19 19 19 19 18 18 18 18 18 18
20 20 20 19 20 21 22 23 23 24 24 24 23 22 21 21 21 21 21 21 20 20 20 20 20 20 20 20 20 19 19 19 19 19 19 19 19 19 19 19 19 19 19 19 18 18 18 18 18
20 20 20 20 21 22 23 23 23 23 24 23 23 22 21 21 21 21 21 21 21 20 20 20 20 20 20 20 19 19 19 19 19 19 19 19 19 19 19 19 19 19 19 19 19 18 18 18 18
20 20 20 21 22 23 23 24 24 23 23 23 22 21 21 21 21 21 21 21 21 21 20 20 20 20 20 20 19 19 19 19 19 19 19 19 19 19 19 19 19 19 19 19 18 18 18 18 18
20 20 20 21 23 24 24 24 24 23 23 23 22 21 20 21 21 21 21 21 21 20 20 20 20 20 20 20 20 19 19 19 19 19 19 19 19 19 19 19 19 19 19 19 18 18 18 18 18
20 20 21 22 23 24 24 24 24 23 23 23 22 20 20 20 21 21 21 21 21 20 20 20 20 20 20 20 20 19 19 19 19 19 19 19 19 19 19 19 19 19 19 19 19 18 18 18 18
21 20 21 22 23 24 25 25 24 24 23 23 23 21 20 21 21 21 21 21 20 20 20 20 20 20 20 20 20 19 19 19 19 19 19 19 19 19 19 19 19 18 18 18 18 18 18 18 18
22 20 21 23 24 24 25 24 24 24 23 23 23 22 22 21 21 21 21 20 20 20 20 20 20 20 20 20 20 20 19 19 19 19 19 19 19 19 19 19 18 18 18 18 18 18 18 18 18
21 20 23 24 24 24 25 25 24 24 23 22 22 22 22 21 21 21 21 20 20 20 20 20 20 20 20 20 20 20 19 19 19 19 19 19 19 19 19 19 18 18 18 18 18 18 18 18 18
22 22 23 24 25 25 25 25 24 24 22 22 22 22 21 21 21 21 21 21 21 21 20 20 20 20 20 20 20 20 19 19 19 19 19 19 19 19 19 19 19 18 18 18 18 18 18 18 18
22 23 24 25 25 25 25 25 24 24 24 24 24 23 22 21 21 21 21 21 21 21 21 20 20 20 20 20 20 20 20 19 19 19 19 19 19 19 19 19 19 18 18 18 18 18 18 18 18
24 24 25 25 25 25 25 24 24 24 24 24 23 22 22 22 22 22 22 21 21 21 21 21 21 20 20 20 20 20 20 19 19 19 19 19 19 19 19 19 19 19 18 18 18 18 18 18 18
25 25 25 25 26 26 24 24 24 24 24 23 23 22 22 22 22 22 21 21 21 21 21 21 21 21 20 20 20 20 20 19 19 19 19 19 19 19 19 18 19 19 18 18 18 18 18 18 18
25 25 25 25 25 25 25 24 23 24 23 23 22 22 22 22 22 22 22 22 22 21 21 21 21 21 20 20 20 20 20 19 19 19 19 19 19 18 18 18 18 18 18 18 18 18 18 18 18
25 24 24 25 25 25 24 23 23 23 23 22 22 22 22 22 22 22 22 22 22 22 21 21 21 21 21 20 20 20 20 19 19 19 19 19 18 18 18 18 18 18 18 18 18 18 18 18 18
23 23 24 25 25 24 24 23 23 23 23 22 22 22 22 22 22 22 22 22 22 22 21 21 21 21 21 20 20 20 20 19 19 19 19 19 18 18 18 18 18 18 18 18 18 18 18 18 18
23 24 24 24 24 24 23 23 23 23 22 22 22 22 22 22 22 22 22 22 22 22 21 21 21 21 20 20 20 20 20 19 19 19 19 19 19 18 18 18 18 18 18 18 18 18 18 18 18
24 24 24 24 24 24 23 22 22 22 22 22 22 22 22 22 22 22 22 22 22 22 21 21 21 21 20 20 20 20 20 20 19 19 19 19 19 18 18 18 18 18 18 18 18 18 18 18 18
24 24 23 24 24 24 23 22 22 22 22 22 22 22 22 22 22 22 22 22 22 22 21 21 21 21 20 21 20 20 20 19 19 19 19 19 19 18 18 18 18 18 18 18 18 18 18 17 17
24 24 24 24 24 23 23 22 22 22 22 22 22 22 22 22 22 22 22 22 22 22 22 22 21 21 21 20 20 20 20 19 19 19 19 19 18 18 18 18 18 18 18 18 18 17 18 17 17
24 24 24 24 22 21 23 22 22 21 21 21 22 22 22 22 22 22 22 22 22 22 22 22 21 21 21 20 20 20 20 20 19 19 19 19 18 18 18 18 18 18 18 17 17 17 17 17 17
24 24 23 23 22 21 21 22 21 20 21 21 21 22 22 22 22 23 23 23 22 22 22 22 21 21 21 21 20 20 20 19 19 19 19 19 18 18 18 18 17 18 17 17 17 17 17 17 17
24 23 22 20 20 21 21 21 21 20 21 21 22 22 22 22 23 23 23 23 22 22 22 21 21 21 21 21 20 20 20 19 19 19 19 18 18 18 18 17 17 17 17 17 17 17 17 17 17
24 22 21 22 20 21 20 20 20 21 21 21 22 22 22 22 22 22 23 22 22 22 22 21 21 21 21 20 20 20 19 19 19 19 18 18 18 18 18 17 17 17 17 17 17 17 17 17 16
23 22 21 22 21 20 20 20 21 21 21 22 22 22 22 22 22 22 23 22 22 22 22 21 21 21 21 21 20 20 19 19 19 19 19 18 18 18 18 17 17 17 17 17 16 16 16 16 16
23 21 21 19 20 20 20 20 21 21 21 21 21 21 21 22 22 22 22 22 22 22 22 22 21 21 21 20 20 20 19 19 19 19 18 18 18 18 17 17 17 17 17 16 16 16 16 16 16
23 20 18 19 20 21 21 21 20 21 21 20 20 20 21 22 22 22 22 22 22 22 22 21 21 21 21 20 20 19 19 19 19 18 18 18 18 17 17 17 17 16 16 16 16 16 16 16 16
22 21 18 17 19 20 20 21 21 20 20 20 20 21 21 21 22 22 22 22 22 22 21 21 21 21 20 20 20 19 19 19 18 18 18 18 17 17 17 17 16 16 16 16 16 16 15 15 15
23 21 19 20 19 18 19 20 21 20 20 20 20 21 21 22 22 22 22 22 22 21 21 21 21 20 20 20 19 19 19 18 18 18 18 17 17 17 17 16 16 16 16 16 16 15 15 15 15
Wind_Speed
7 6 3 1 2 3 2 3 0 1 2 2 4 5 5 4 2 2 1 5 6 6 7 9 9 8 8 8 8 8 9 10 12 12 12 12 12 13 12 12 12 12 12 11 12 12 11 11 11
6 5 2 1 3 2 3 2 2 2 3 4 5 5 5 4 3 5 3 4 7 7 6 8 9 9 8 8 8 8 9 10 11 11 11 11 11 11 11 11 11 11 11 11 11 11 11 11 11
6 3 1 2 2 2 1 1 3 3 3 3 3 4 4 3 3 4 4 7 7 5 6 8 10 9 8 8 8 8 8 9 10 10 10 10 10 10 10 10 10 10 10 10 10 11 10 11 11
3 0 1 2 1 2 2 2 3 3 3 4 4 5 4 3 3 4 8 8 7 5 6 7 10 9 8 8 8 8 8 8 9 9 9 9 9 10 10 9 9 9 9 10 10 10 10 10 10
1 1 3 2 3 2 1 2 2 3 2 3 4 4 3 4 6 8 8 8 7 4 5 6 9 9 8 8 7 7 7 7 8 8 8 7 8 8 9 8 8 8 8 8 9 10 10 10 10
2 2 3 2 3 2 0 1 2 4 3 3 4 4 2 2 6 6 7 6 5 4 4 5 8 8 8 8 7 6 6 6 7 7 7 7 7 7 7 7 7 7 8 8 8 9 9 8 8
2 2 1 1 2 1 1 1 2 4 4 3 4 5 2 2 4 6 6 6 5 4 4 3 5 6 7 7 6 6 5 5 5 5 5 6 6 5 6 6 5 6 6 7 8 8 8 8 8
2 2 1 1 1 1 1 2 2 4 3 4 4 6 5 5 6 7 6 6 4 4 3 2 3 4 4 5 5 5 5 4 4 3 4 4 5 4 4 3 4 4 5 6 6 6 7 7 7
2 3 1 3 3 2 1 2 2 3 5 2 3 4 6 11 10 8 6 4 3 3 2 2 2 3 3 3 4 4 4 3 3 2 2 3 2 2 1 2 3 3 3 5 6 6 6 6 6
3 2 5 4 3 2 2 2 4 4 4 2 5 6 11 11 10 8 7 6 5 4 3 2 3 3 3 3 3 2 2 1 1 1 1 1 1 1 0 1 2 2 2 2 4 5 5 5 3
4 5 3 3 2 2 2 2 3 7 3 5 8 12 12 10 9 8 7 6 6 5 5 4 4 3 3 2 2 2 1 1 1 1 1 1 1 1 1 2 2 2 1 1 0 1 2 3 3
3 4 3 2 1 1 2 3 3 3 5 7 11 14 13 12 10 9 8 6 5 5 5 4 4 3 3 2 1 1 1 1 0 0 1 2 1 2 2 1 2 1 1 1 1 1 0 1 2
3 2 2 2 1 2 4 3 3 1 4 9 12 12 12 11 9 7 6 5 5 5 5 4 4 4 3 2 1 2 1 1 1 0 1 1 1 1 1 2 2 2 1 1 1 1 1 1 1
2 1 2 1 1 2 5 3 3 2 7 10 11 11 10 10 9 6 5 5 6 6 6 5 5 4 4 3 2 1 1 1 1 0 0 1 1 1 1 1 2 2 1 0 1 1 0 0 1
1 2 4 2 2 2 5 3 1 5 8 10 10 10 9 8 7 8 8 7 7 6 6 6 6 4 4 4 3 2 2 2 1 1 0 1 1 1 1 1 2 2 2 2 2 1 1 1 1
3 3 2 3 1 2 5 2 3 6 9 8 8 9 8 7 7 7 7 6 6 5 5 5 6 5 5 4 3 2 2 2 1 1 1 1 2 2 2 1 1 2 2 2 2 2 2 2 1
4 1 2 3 0 2 3 4 4 6 8 8 8 8 8 6 6 6 6 6 6 6 6 6 5 6 5 4 3 2 2 2 1 1 1 1 1 2 2 1 1 2 2 2 2 2 2 1 1
3 2 2 3 2 2 2 4 3 6 7 8 8 7 7 8 8 6 6 6 6 5 5 6 5 5 5 3 3 2 2 1 1 1 1 1 2 2 2 2 2 2 2 2 2 2 2 1 0
4 3 3 4 2 2 2 3 3 5 5 6 6 7 7 8 6 5 5 5 5 5 6 6 6 5 5 3 3 2 2 1 0 0 1 1 2 2 3 2 2 2 2 2 2 2 2 2 1
3 3 2 2 0 2 1 3 2 4 7 7 7 7 7 5 4 4 5 5 6 7 8 7 7 7 6 5 4 3 2 1 1 0 1 1 2 2 3 2 2 2 2 3 2 2 1 2 2
2 4 4 3 1 3 2 4 3 2 3 4 4 4 5 7 7 6 6 6 6 7 8 8 8 7 6 6 4 3 2 2 1 0 0 1 2 3 2 2 2 2 2 1 1 1 2 1 1
3 4 5 4 3 1 1 3 5 3 4 5 6 6 6 6 6 6 7 7 8 9 7 6 7 6 6 7 6 6 4 3 2 2 1 1 2 2 2 2 2 2 1 1 1 1 1 2 1
4 2 4 3 4 2 2 1 6 1 4 6 7 8 7 7 7 7 9 9 8 7 6 5 5 6 5 6 8 7 4 3 2 2 2 1 1 2 2 2 2 1 1 1 1 2 2 1 1
4 6 7 6 5 1 2 3 6 4 6 5 5 6 7 7 6 6 6 5 6 6 6 6 6 5 5 6 7 7 7 5 4 3 2 1 1 1 1 2 2 1 1 1 1 2 2 2 2
5 6 4 4 3 5 2 3 8 6 6 5 6 5 6 6 6 5 6 6 6 6 6 6 7 6 6 7 7 7 8 8 7 5 4 3 2 1 1 2 2 1 1 1 2 2 1 1 2
5 8 7 5 5 5 2 5 7 4 4 3 3 3 3 4 5 5 6 6 6 7 7 7 7 6 6 7 7 6 7 6 5 5 5 4 3 3 3 2 2 2 2 2 2 2 1 1 1
6 4 6 7 3 1 5 6 7 2 3 2 1 1 3 4 4 5 5 6 6 6 6 7 7 6 6 7 6 5 5 4 4 4 4 3 3 3 2 2 2 2 2 2 2 2 1 1 1
5 8 6 6 6 3 5 5 5 6 6 4 3 3 4 3 3 3 4 5 6 6 6 5 6 7 6 6 6 5 4 4 5 4 4 3 3 2 2 2 2 2 2 2 2 1 1 1 0
4 5 5 5 5 6 4 7 6 9 8 7 6 5 5 4 3 3 3 3 4 4 4 5 5 5 5 5 5 5 5 4 5 4 4 4 3 3 3 3 3 2 2 2 2 2 1 1 0
4 6 7 6 4 5 4 7 5 6 6 6 5 4 3 3 3 3 2 2 3 4 4 4 5 5 5 5 5 5 4 4 4 4 4 4 3 3 3 3 2 2 2 2 2 2 2 2 1
Wind_Direction
163 149 140 151 44 40 339 320 350 56 76 56 98 101 108 101 137 147 128 136 134 140 152 153 144 135 127 121 115 114 113 115 120 119 121 125 132 136 137 139 141 144 144 144 145 146 146 147 147
151 155 169 60 68 44 329 327 78 99 130 110 78 72 76 65 80 112 131 144 135 140 143 149 142 137 130 122 118 116 116 118 123 124 126 128 134 137 141 142 143 145 148 149 151 152 152 151 148
160 187 86 61 76 167 258 327 107 94 93 83 74 57 72 91 119 140 153 139 129 133 141 154 143 140 131 125 120 118 118 120 124 128 130 133 138 141 144 146 147 149 150 152 153 153 155 155 153
150 136 51 57 349 251 213 202 134 108 47 48 93 73 60 58 128 137 132 132 130 133 143 160 147 144 137 130 125 123 122 125 127 129 134 138 141 145 147 149 150 151 153 155 156 156 156 159 160
97 61 47 7 313 299 206 189 164 116 77 63 88 87 47 19 91 115 129 134 135 133 141 161 149 147 143 139 135 131 130 131 133 131 133 138 139 145 151 153 154 156 157 160 163 163 163 165 166
56 57 61 351 320 333 43 162 128 105 104 96 97 97 63 75 108 123 123 125 125 127 129 151 152 150 147 142 141 140 137 134 135 138 140 138 141 145 155 159 161 161 164 170 169 169 172 173 174
101 80 86 262 302 332 165 113 122 125 119 126 120 101 95 126 133 124 113 108 106 112 116 132 148 155 155 153 149 146 144 145 144 141 141 139 141 145 152 163 169 172 170 172 172 176 178 179 182
147 97 358 292 259 271 166 117 106 114 117 119 116 131 165 173 135 113 102 96 101 102 109 125 130 136 148 160 160 157 154 150 147 145 139 134 136 142 152 169 178 186 188 180 180 184 184 181 189
138 67 281 231 201 241 179 123 91 75 103 100 96 136 150 137 126 117 110 99 120 130 124 132 130 134 139 152 167 162 159 154 156 156 139 118 111 113 158 191 198 205 200 199 201 197 196 191 194
130 154 229 224 196 192 200 149 143 106 104 95 86 98 121 132 140 146 149 158 168 177 182 169 162 152 147 166 161 146 138 122 114 100 85 77 80 94 127 252 244 238 229 216 204 198 193 194 197
174 205 239 253 218 179 171 132 131 130 165 188 158 147 144 146 155 163 166 176 187 187 189 185 176 166 160 166 138 124 116 109 79 60 75 76 62 39 20 357 349 339 323 351 283 191 177 180 180
193 246 230 267 165 146 155 132 118 163 200 172 156 152 154 159 170 177 177 184 185 181 196 186 175 168 170 160 148 130 115 108 90 73 77 83 55 30 24 13 355 1 356 27 60 85 87 144 187
208 264 238 230 226 158 121 114 129 176 135 136 141 148 161 170 179 185 181 174 172 183 192 183 171 173 170 153 161 146 146 151 167 111 63 102 87 49 34 16 9 5 9 32 77 100 103 115 153
218 250 320 322 110 107 113 92 100 171 136 136 148 161 171 181 183 178 174 180 183 186 186 177 172 174 163 167 171 158 167 171 139 111 63 119 120 69 44 23 20 9 0 46 107 126 138 123 130
80 33 5 15 74 102 91 43 182 168 143 149 162 172 179 190 188 188 189 188 187 187 184 178 173 165 167 178 183 167 175 158 142 158 135 135 140 131 90 42 25 11 27 56 74 75 78 79 82
34 47 1 301 61 88 110 240 240 154 155 171 180 183 188 197 198 197 188 182 182 179 178 179 176 168 176 178 171 149 146 144 146 147 123 117 134 132 103 69 18 20 55 66 74 68 70 54 57
34 45 271 301 53 126 142 229 230 171 168 185 190 191 193 197 205 205 194 183 179 178 174 173 171 169 175 163 146 125 125 136 140 130 113 105 122 126 112 73 24 45 63 57 65 70 78 76 56
220 225 242 248 256 124 185 244 220 189 184 198 197 194 193 200 212 203 198 187 172 171 171 173 173 170 159 141 121 107 99 108 109 113 119 122 125 120 114 84 54 69 66 54 62 76 65 67 69
184 188 239 253 218 137 221 262 238 199 199 213 211 199 198 209 212 192 187 181 167 167 176 183 179 176 158 152 159 163 188 205 196 159 128 131 126 121 112 88 73 76 79 71 78 91 74 44 41
185 189 232 296 213 155 231 287 266 201 208 212 215 215 208 205 204 198 185 182 181 186 186 188 190 182 178 179 171 163 157 170 195 207 72 112 113 117 121 116 112 88 80 62 60 78 87 42 39
220 195 207 201 49 43 60 330 293 262 228 220 220 221 215 205 206 204 200 192 187 193 195 198 195 186 183 173 141 117 90 71 68 26 20 55 115 124 120 119 113 98 99 92 59 82 121 110 37
252 225 184 163 114 301 112 264 284 264 256 228 224 223 221 219 212 211 207 201 198 203 197 190 184 179 180 168 163 162 164 176 196 185 173 78 97 117 125 124 127 124 120 116 107 100 123 132 111
204 113 113 113 124 79 20 182 282 299 258 247 231 222 220 217 212 212 209 206 203 197 187 186 177 178 175 171 173 169 165 167 154 129 121 91 68 96 111 118 118 129 130 132 112 95 98 121 142
138 69 58 54 71 7 249 186 274 241 231 246 237 224 219 215 212 212 210 191 191 186 178 175 173 186 180 176 175 173 167 161 154 152 152 144 116 91 103 121 133 141 156 159 137 114 101 110 116
105 95 42 1 5 251 252 207 248 252 232 224 230 230 216 204 202 198 193 188 190 186 184 179 178 186 182 178 180 182 178 173 175 176 174 169 170 183 201 161 149 159 173 154 128 119 117 126 126
173 148 161 196 220 268 292 236 254 259 254 229 208 219 213 202 200 201 197 189 192 194 188 182 180 185 181 181 183 182 181 181 179 176 176 180 186 197 191 169 165 170 161 149 130 121 146 123 137
144 175 159 136 144 239 275 283 300 265 276 234 190 192 228 219 208 206 197 186 187 190 188 184 179 177 180 182 176 175 178 169 166 166 169 176 183 189 167 163 164 163 150 148 140 139 164 134 145
139 142 108 129 155 228 276 269 249 251 245 240 219 213 226 216 202 202 201 192 190 188 181 174 177 179 178 173 175 176 172 163 159 155 160 171 178 169 153 162 166 158 143 134 127 130 131 118 118
115 113 118 123 152 164 234 263 229 220 219 213 217 213 209 196 187 189 194 185 180 171 169 169 174 172 172 176 174 172 170 167 160 165 175 177 178 178 176 178 172 166 161 154 147 164 152 139 79
168 164 149 155 198 176 190 260 275 220 214 202 212 210 191 176 164 159 151 133 149 160 167 172 175 177 183 178 172 177 167 158 164 176 179 174 175 183 185 179 173 173 164 166 171 189 177 172 187
Height
1498 1498 1499 1501 1503 1508 1509 1501 1495 1494 1494 1493 1494 1495 1497 1499 1503 1508 1504 1502 1504 1505 1506 1507 1508 1509 1509 1509 1509 1509 1510 1510 1511 1511 1512 1513 1514 1516 1517 1518 1520 1521 1523 1524 1526 1527 1529 1531 1532
1498 1499 1501 1502 1508 1518 1511 1498 1496 1494 1494 1494 1496 1497 1498 1499 1500 1501 1502 1504 1505 1506 1507 1508 1509 1510 1511 1511 1511 1511 1511 1512 1513 1513 1514 1515 1516 1517 1519 1520 1521 1522 1524 1525 1527 1528 1530 1532 1533
1499 1500 1502 1503 1510 1515 1508 1498 1496 1494 1495 1495 1497 1498 1500 1501 1501 1502 1503 1505 1506 1508 1509 1510 1511 1512 1513 1513 1513 1513 1513 1514 1514 1515 1516 1517 1518 1519 1520 1521 1522 1523 1524 1526 1527 1529 1530 1532 1534
1501 1502 1503 1507 1510 1504 1500 1496 1495 1495 1496 1496 1498 1501 1502 1504 1503 1504 1505 1506 1507 1509 1510 1512 1513 1514 1514 1515 1515 1515 1515 1516 1516 1517 1517 1518 1519 1520 1521 1522 1523 1524 1525 1527 1528 1529 1531 1533 1534
1501 1502 1506 1511 1507 1500 1496 1495 1495 1496 1497 1498 1499 1502 1504 1506 1505 1506 1507 1508 1509 1510 1512 1513 1514 1515 1516 1516 1517 1517 1517 1517 1518 1518 1519 1520 1520 1521 1522 1523 1524 1525 1526 1527 1529 1530 1531 1533 1534
1502 1503 1513 1516 1507 1499 1496 1496 1496 1497 1499 1500 1501 1503 1506 1507 1507 1508 1509 1510 1511 1512 1514 1515 1516 1517 1517 1518 1518 1518 1519 1519 1519 1520 1520 1521 1521 1522 1523 1524 1525 1526 1526 1527 1529 1530 1531 1533 1534
1504 1506 1512 1511 1507 1502 1497 1497 1497 1498 1499 1501 1502 1504 1507 1508 1509 1510 1511 1512 1513 1514 1515 1516 1517 1518 1519 1519 1520 1520 1520 1521 1521 1521 1522 1522 1523 1523 1524 1524 1525 1526 1527 1527 1529 1530 1532 1533 1534
1503 1507 1510 1509 1506 1503 1497 1497 1498 1499 1501 1502 1503 1504 1507 1508 1510 1511 1512 1513 1514 1516 1517 1518 1519 1519 1520 1521 1521 1522 1522 1522 1522 1523 1523 1523 1523 1524 1524 1525 1526 1527 1527 1528 1529 1530 1531 1532 1534
1503 1509 1513 1507 1504 1500 1497 1498 1499 1500 1501 1503 1504 1505 1506 1508 1510 1512 1513 1514 1515 1517 1518 1519 1520 1520 1521 1522 1523 1523 1523 1523 1524 1524 1524 1524 1524 1525 1525 1526 1527 1527 1527 1528 1529 1530 1531 1532 1534
1504 1511 1505 1498 1497 1497 1497 1498 1499 1501 1503 1504 1505 1506 1508 1509 1511 1511 1512 1514 1515 1517 1518 1519 1520 1521 1522 1523 1524 1524 1524 1524 1525 1525 1525 1525 1526 1526 1526 1527 1527 1528 1528 1528 1529 1530 1531 1532 1533
1502 1504 1497 1495 1495 1495 1497 1498 1500 1501 1504 1503 1503 1505 1508 1510 1511 1512 1513 1514 1516 1517 1518 1520 1521 1522 1523 1524 1524 1525 1525 1526 1526 1526 1526 1526 1527 1527 1527 1527 1528 1528 1528 1528 1529 1530 1531 1532 1533
1500 1497 1496 1494 1494 1496 1497 1499 1500 1501 1502 1502 1504 1505 1507 1509 1511 1512 1513 1515 1516 1517 1518 1520 1521 1522 1523 1524 1525 1526 1526 1527 1527 1527 1527 1527 1527 1527 1528 1528 1528 1528 1528 1529 1529 1529 1531 1532 1533
1498 1496 1495 1494 1494 1495 1497 1498 1500 1501 1501 1503 1505 1507 1508 1509 1511 1513 1515 1516 1517 1518 1519 1520 1522 1523 1524 1525 1526 1527 1527 1528 1528 1528 1528 1528 1528 1528 1529 1529 1528 1529 1529 1529 1529 1529 1530 1531 1532
1496 1496 1495 1494 1494 1495 1497 1500 1501 1502 1502 1504 1505 1507 1509 1510 1512 1513 1515 1516 1517 1518 1519 1521 1522 1523 1525 1526 1527 1527 1528 1528 1529 1529 1529 1529 1529 1529 1529 1529 1529 1529 1529 1529 1529 1530 1530 1531 1532
1496 1497 1497 1496 1495 1497 1498 1503 1502 1502 1503 1504 1506 1508 1509 1511 1512 1513 1514 1516 1518 1519 1520 1521 1523 1524 1525 1526 1527 1528 1528 1529 1529 1530 1530 1530 1530 1530 1530 1530 1530 1530 1530 1530 1530 1530 1530 1531 1531
1497 1503 1507 1499 1497 1497 1503 1511 1502 1503 1504 1505 1506 1508 1509 1511 1512 1513 1515 1516 1518 1519 1520 1522 1523 1524 1526 1527 1528 1529 1529 1530 1530 1530 1530 1530 1530 1531 1531 1531 1531 1531 1530 1530 1530 1530 1530 1530 1531
1507 1513 1511 1504 1498 1498 1503 1508 1502 1503 1504 1504 1506 1507 1509 1510 1512 1513 1515 1516 1518 1519 1521 1522 1523 1524 1526 1527 1528 1529 1530 1530 1530 1530 1530 1531 1531 1531 1531 1531 1531 1531 1531 1530 1530 1530 1530 1530 1530
1514 1512 1510 1508 1500 1500 1504 1505 1502 1503 1503 1504 1505 1507 1508 1509 1510 1512 1514 1516 1518 1519 1520 1522 1523 1525 1526 1527 1528 1529 1529 1530 1530 1530 1531 1531 1531 1531 1531 1531 1531 1531 1531 1531 1530 1530 1530 1530 1530
1502 1507 1510 1504 1498 1502 1505 1505 1503 1502 1503 1504 1505 1506 1507 1508 1509 1511 1513 1515 1517 1518 1520 1521 1522 1524 1525 1527 1528 1528 1529 1529 1530 1530 1531 1531 1531 1531 1531 1531 1531 1531 1531 1531 1530 1530 1530 1529 1530
1500 1507 1508 1504 1498 1502 1506 1506 1502 1502 1502 1502 1503 1504 1505 1506 1508 1510 1511 1513 1515 1516 1518 1520 1521 1523 1524 1525 1527 1528 1528 1529 1530 1530 1530 1531 1531 1531 1531 1531 1531 1531 1531 1531 1531 1530 1530 1530 1530
1501 1505 1505 1506 1502 1503 1506 1511 1505 1501 1501 1502 1502 1503 1504 1504 1505 1507 1508 1510 1512 1514 1515 1517 1519 1521 1522 1524 1526 1527 1528 1528 1529 1529 1530 1530 1530 1530 1531 1531 1531 1531 1531 1530 1530 1530 1530 1530 1530
1504 1495 1497 1502 1511 1518 1513 1526 1510 1504 1501 1499 1500 1500 1501 1502 1503 1504 1506 1508 1509 1511 1513 1515 1517 1519 1521 1523 1524 1525 1525 1526 1528 1529 1529 1529 1530 1530 1530 1530 1530 1530 1530 1530 1530 1530 1530 1530 1529
1495 1492 1496 1502 1511 1519 1517 1524 1516 1505 1503 1498 1496 1497 1498 1499 1500 1501 1502 1504 1507 1509 1511 1513 1515 1517 1519 1521 1522 1523 1523 1525 1527 1528 1528 1528 1529 1529 1529 1529 1529 1530 1530 1529 1529 1529 1529 1529 1529
1489 1496 1502 1510 1518 1530 1521 1525 1520 1508 1500 1495 1494 1494 1495 1496 1498 1499 1500 1502 1505 1507 1509 1511 1514 1515 1517 1519 1520 1521 1522 1523 1524 1526 1526 1527 1528 1528 1528 1528 1528 1529 1529 1529 1529 1529 1529 1528 1528
1492 1509 1528 1531 1538 1534 1520 1522 1516 1496 1492 1491 1491 1491 1492 1493 1495 1496 1498 1500 1502 1505 1507 1509 1511 1513 1515 1517 1518 1519 1520 1522 1522 1523 1524 1525 1526 1526 1527 1527 1527 1527 1528 1528 1528 1528 1528 1528 1527
1494 1504 1526 1537 1540 1533 1521 1522 1505 1491 1489 1488 1488 1489 1490 1491 1493 1494 1496 1498 1500 1502 1505 1507 1509 1511 1513 1515 1516 1517 1518 1519 1520 1521 1522 1523 1524 1525 1525 1525 1525 1526 1526 1526 1526 1527 1526 1526 1526
1494 1502 1502 1521 1528 1533 1526 1514 1499 1489 1487 1486 1487 1488 1489 1490 1491 1492 1494 1496 1498 1500 1503 1505 1507 1509 1510 1512 1513 1515 1516 1517 1518 1519 1520 1521 1522 1523 1523 1523 1524 1524 1524 1525 1525 1525 1525 1525 1524
1484 1494 1510 1522 1534 1536 1525 1518 1510 1494 1489 1486 1486 1486 1487 1489 1490 1491 1493 1495 1497 1499 1501 1503 1505 1507 1508 1510 1511 1512 1513 1515 1516 1517 1518 1519 1520 1520 1521 1521 1522 1522 1522 1522 1523 1523 1523 1523 1522
1490 1497 1506 1518 1519 1532 1534 1519 1490 1487 1484 1484 1483 1484 1486 1487 1488 1490 1491 1494 1496 1498 1499 1501 1503 1505 1506 1508 1509 1510 1511 1513 1515 1515 1516 1517 1518 1518 1519 1519 1519 1520 1520 1521 1521 1521 1521 1521 1520
1482 1489 1500 1512 1519 1523 1526 1513 1481 1480 1480 1481 1482 1483 1484 1486 1487 1489 1491 1492 1494 1496 1498 1499 1501 1502 1504 1506 1507 1508 1510 1511 1512 1513 1514 1515 1516 1516 1517 1517 1518 1518 1518 1518 1519 1519 1519 1519 1518